Weather History for Marshalltown, IA

Change the Weather History Date:

Sunday, January 12, 2014

  Actual Average Record
Temperature  
Mean Temperature 32 °F 19 °F  
Max Temperature 42 °F 27 °F 50 °F (2013)
Min Temperature 21 °F 10 °F -11 °F (1997)
Degree Days  
Heating Degree Days 33 46  
Month to date heating degree days 669 552  
Since 1 July heating degree days 3673 3364  
Cooling Degree Days 0 0  
Month to date cooling degree days 0 0  
Year to date cooling degree days 0 0  
Moisture  
Dew Point 28 °F    
Average Humidity 78    
Maximum Humidity 92    
Minimum Humidity 64    
Precipitation  
Precipitation 0.00 in 0.02 in 0.01 in (2001)
Month to date precipitation 0.02 0.27  
Sea Level Pressure  
Sea Level Pressure 29.59 in    
Wind  
Wind Speed 12 mph (SSW)    
Max Wind Speed 29 mph    
Max Gust Speed 36 mph    
Visibility 10 miles    
Events      
T = Trace of Precipitation, MM = Missing Value Source: NWS Daily Summary

Daily Weather History Graph

Daily Weather History Graph

Search for Another Location

Airport:

Trip Planner

Search our weather history database for the weather conditions in past years. The results will help you decide how hot, cold, wet, or windy it might be!

Date:

Astronomy

Jan. 12, 2014 Rise Set
Actual Time 7:38 AM CST 5:01 PM CST
Civil Twilight 7:07 AM CST 5:32 PM CST
Nautical Twilight 6:32 AM CST 6:07 PM CST
Astronomical Twilight 5:59 AM CST 6:41 PM CST
Moon 2:30 PM CST (1/12) 4:37 AM CST (1/12)
Length of Visible Light 10h 25m
Length of Day
9h 23m
Waxing Gibbous, 90% of the Moon is Illuminated
Jan 12
Waxing Gibbous
Jan 15
Full
Jan 23
Last Quarter
Jan 30
New
Feb 6
First Quarter

Hourly Weather History & Observations

Time (CST) Temp. Windchill Dew Point Humidity Pressure Visibility Wind Dir Wind Speed Gust Speed Precip Events Conditions
12:53 AM 21.9 °F 11.7 °F 19.9 °F 92% 29.78 in 10.0 mi South 9.2 mph - N/A   Clear
1:53 AM 24.1 °F 15.2 °F 21.9 °F 91% 29.76 in 10.0 mi SSE 8.1 mph - N/A   Clear
2:53 AM 27.0 °F 16.7 °F 24.1 °F 89% 29.74 in 10.0 mi SSE 11.5 mph - N/A   Clear
3:53 AM 25.0 °F 16.3 °F 23.0 °F 92% 29.70 in 10.0 mi SE 8.1 mph - N/A   Clear
4:53 AM 28.9 °F 17.7 °F 24.1 °F 82% 29.66 in 10.0 mi SSE 15.0 mph - N/A   Clear
5:53 AM 33.1 °F 21.5 °F 26.1 °F 75% 29.63 in 10.0 mi South 19.6 mph - N/A   Clear
6:53 AM 34.0 °F 21.5 °F 25.0 °F 70% 29.58 in 10.0 mi South 24.2 mph 33.4 mph N/A   Clear
7:53 AM 35.1 °F 23.0 °F 26.1 °F 70% 29.56 in 10.0 mi South 24.2 mph 32.2 mph N/A   Clear
8:53 AM 37.0 °F 25.6 °F 27.0 °F 67% 29.57 in 10.0 mi South 24.2 mph 32.2 mph N/A   Clear
9:53 AM 37.0 °F 26.2 °F 28.9 °F 73% 29.56 in 10.0 mi South 21.9 mph - N/A   Clear
10:53 AM 39.9 °F 30.0 °F 28.9 °F 65% 29.55 in 10.0 mi South 21.9 mph 32.2 mph N/A   Clear
11:53 AM 39.9 °F 30.2 °F 28.9 °F 65% 29.50 in 10.0 mi South 20.7 mph - N/A   Clear
12:53 PM 41.0 °F 34.3 °F 30.0 °F 65% 29.49 in 10.0 mi SSW 11.5 mph - N/A   Clear
1:53 PM 41.0 °F 35.2 °F 30.9 °F 67% 29.47 in 10.0 mi SSW 9.2 mph - N/A   Clear
2:53 PM 41.0 °F 34.3 °F 30.9 °F 67% 29.47 in 10.0 mi South 11.5 mph - N/A   Clear
3:53 PM 39.0 °F 34.8 °F 32.0 °F 76% 29.51 in 10.0 mi SW 5.8 mph - N/A   Clear
4:53 PM 36.0 °F 31.1 °F 30.9 °F 82% 29.54 in 10.0 mi WSW 5.8 mph - N/A   Clear
5:53 PM 37.9 °F 33.5 °F 30.9 °F 76% 29.54 in 10.0 mi West 5.8 mph - N/A   Clear
6:53 PM 35.1 °F 31.0 °F 30.9 °F 85% 29.56 in 10.0 mi South 4.6 mph - N/A   Clear
7:53 PM 35.1 °F 30.1 °F 30.9 °F 85% 29.57 in 10.0 mi SSW 5.8 mph - N/A   Scattered Clouds
8:53 PM 35.1 °F 28.6 °F 30.9 °F 85% 29.57 in 10.0 mi WNW 8.1 mph - N/A   Overcast
9:53 PM 36.0 °F 29.6 °F 32.0 °F 86% 29.57 in 10.0 mi West 8.1 mph - N/A   Overcast
10:53 PM 36.0 °F 29.6 °F 32.0 °F 86% 29.59 in 10.0 mi West 8.1 mph - N/A   Clear
11:53 PM 35.1 °F 30.1 °F 32.0 °F 89% 29.58 in 10.0 mi West 5.8 mph - N/A   Overcast